Time,TemperatureF,DewpointF,PressureIn,WindDirection,WindDirectionDegrees,WindSpeedMPH,WindSpeedGustMPH,Humidity,HourlyPrecipIn,Conditions,Clouds,dailyrainin,SoftwareType,DateUTC
2013-01-26 00:03:00,-1.8,-37.0,29.12,ENE,78,0.0,0.0,16,0.00,,,0.00,VWS V13.01,2013-01-26 06:03:00,
2013-01-26 00:08:00,-1.8,-37.0,29.12,ENE,78,0.0,0.0,16,0.00,,,0.00,VWS V13.01,2013-01-26 06:08:00,
2013-01-26 00:13:00,-2.2,-37.3,29.15,ENE,78,0.0,0.0,16,0.00,,,0.00,VWS V13.01,2013-01-26 06:13:00,
2013-01-26 00:18:00,-2.6,-37.6,29.15,ENE,78,0.0,0.0,16,0.00,,,0.00,VWS V13.01,2013-01-26 06:18:00,
2013-01-26 00:23:00,-2.7,-37.8,29.15,ENE,78,0.0,0.0,16,0.00,,,0.00,VWS V13.01,2013-01-26 06:23:00,
2013-01-26 00:28:00,-2.6,-37.6,29.15,ENE,78,0.0,0.0,16,0.00,,,0.00,VWS V13.01,2013-01-26 06:28:00,
2013-01-26 00:33:00,-2.6,-37.6,29.15,ENE,78,0.0,0.0,16,0.00,,,0.00,VWS V13.01,2013-01-26 06:33:00,
2013-01-26 00:38:00,-2.4,-37.5,29.15,ENE,78,0.0,0.0,16,0.00,,,0.00,VWS V13.01,2013-01-26 06:38:00,
2013-01-26 00:43:00,-2.2,-37.3,29.15,ENE,78,0.0,0.0,16,0.00,,,0.00,VWS V13.01,2013-01-26 06:43:00,
2013-01-26 00:48:00,-2.6,-37.6,29.15,ESE,105,0.0,0.0,16,0.00,,,0.00,VWS V13.01,2013-01-26 06:48:00,
2013-01-26 00:53:00,-2.0,-37.2,29.15,ESE,116,0.0,0.0,16,0.00,,,0.00,VWS V13.01,2013-01-26 06:53:00,
2013-01-26 00:58:00,-1.8,-37.0,29.15,East,97,0.0,0.0,16,0.00,,,0.00,VWS V13.01,2013-01-26 06:58:00,
2013-01-26 01:03:00,-2.2,-37.3,29.15,East,97,0.0,0.0,16,0.00,,,0.00,VWS V13.01,2013-01-26 07:03:00,
2013-01-26 01:08:00,-1.8,-37.0,29.15,ESE,106,0.0,0.0,16,0.00,,,0.00,VWS V13.01,2013-01-26 07:08:00,
2013-01-26 01:13:00,-2.0,-37.2,29.15,East,82,0.0,0.0,16,0.00,,,0.00,VWS V13.01,2013-01-26 07:13:00,
2013-01-26 01:18:00,-1.7,-36.9,29.15,SSE,149,0.0,0.0,16,0.00,,,0.00,VWS V13.01,2013-01-26 07:18:00,
2013-01-26 01:23:00,-1.1,-36.4,29.12,SSE,151,2.7,2.7,16,0.00,,,0.00,VWS V13.01,2013-01-26 07:23:00,
2013-01-26 01:28:00,-1.3,-36.6,29.12,SSE,157,0.0,0.0,16,0.00,,,0.00,VWS V13.01,2013-01-26 07:28:00,
2013-01-26 01:33:00,-0.9,-36.3,29.12,SSE,152,3.1,3.1,16,0.00,,,0.00,VWS V13.01,2013-01-26 07:33:00,
2013-01-26 01:38:00,-0.6,-36.0,29.12,SSE,167,0.0,0.0,16,0.00,,,0.00,VWS V13.01,2013-01-26 07:38:00,
2013-01-26 01:43:00,-1.1,-36.4,29.12,SSE,151,2.2,2.2,16,0.00,,,0.00,VWS V13.01,2013-01-26 07:43:00,
2013-01-26 01:48:00,-0.9,-36.3,29.12,SSE,155,0.0,2.7,16,0.00,,,0.00,VWS V13.01,2013-01-26 07:48:00,
2013-01-26 01:53:00,-0.9,-36.3,29.12,SSE,158,0.0,0.0,16,0.00,,,0.00,VWS V13.01,2013-01-26 07:53:00,
2013-01-26 01:58:00,-1.1,-36.4,29.12,SSE,165,0.0,0.0,16,0.00,,,0.00,VWS V13.01,2013-01-26 07:58:00,
2013-01-26 02:03:00,-1.3,-36.6,29.12,SSE,155,0.0,0.0,16,0.00,,,0.00,VWS V13.01,2013-01-26 08:03:00,
2013-01-26 02:08:00,-2.0,-37.2,29.15,SSE,155,0.0,0.0,16,0.00,,,0.00,VWS V13.01,2013-01-26 08:08:00,
2013-01-26 02:13:00,-2.2,-37.3,29.15,SSE,155,0.0,0.0,16,0.00,,,0.00,VWS V13.01,2013-01-26 08:13:00,
2013-01-26 02:18:00,-2.2,-37.3,29.15,SSE,155,0.0,0.0,16,0.00,,,0.00,VWS V13.01,2013-01-26 08:18:00,
2013-01-26 02:23:00,-2.9,-37.9,29.15,SSE,155,0.0,0.0,16,0.00,,,0.00,VWS V13.01,2013-01-26 08:23:00,
2013-01-26 02:28:00,-2.2,-37.3,29.15,South,183,0.0,3.6,16,0.00,,,0.00,VWS V13.01,2013-01-26 08:28:00,
2013-01-26 02:33:00,-2.2,-37.3,29.15,SSE,158,0.0,0.0,16,0.00,,,0.00,VWS V13.01,2013-01-26 08:33:00,
2013-01-26 02:38:00,-2.7,-37.8,29.15,SE,146,0.0,0.0,16,0.00,,,0.00,VWS V13.01,2013-01-26 08:38:00,
2013-01-26 02:43:00,-3.1,-38.1,29.15,SE,138,0.0,0.0,16,0.00,,,0.00,VWS V13.01,2013-01-26 08:43:00,
2013-01-26 02:48:00,-3.1,-38.1,29.15,SE,138,0.0,0.0,16,0.00,,,0.00,VWS V13.01,2013-01-26 08:48:00,
2013-01-26 02:53:00,-3.1,-38.1,29.15,SE,138,0.0,0.0,16,0.00,,,0.00,VWS V13.01,2013-01-26 08:53:00,
2013-01-26 02:58:00,-3.1,-38.1,29.15,SE,138,0.0,0.0,16,0.00,,,0.00,VWS V13.01,2013-01-26 08:58:00,
2013-01-26 03:03:00,-3.5,-38.4,29.15,SE,138,0.0,0.0,16,0.00,,,0.00,VWS V13.01,2013-01-26 09:03:00,
2013-01-26 03:08:00,-3.8,-38.7,29.15,SE,138,0.0,0.0,16,0.00,,,0.00,VWS V13.01,2013-01-26 09:08:00,
2013-01-26 03:13:00,-4.0,-38.8,29.15,SE,138,0.0,0.0,16,0.00,,,0.00,VWS V13.01,2013-01-26 09:13:00,
2013-01-26 03:18:00,-3.5,-38.4,29.15,SE,138,0.0,0.0,16,0.00,,,0.00,VWS V13.01,2013-01-26 09:18:00,
2013-01-26 03:23:00,-3.6,-38.5,29.15,SE,138,0.0,0.0,16,0.00,,,0.00,VWS V13.01,2013-01-26 09:23:00,
2013-01-26 03:28:00,-4.4,-39.1,29.15,SE,138,0.0,0.0,16,0.00,,,0.00,VWS V13.01,2013-01-26 09:28:00,
2013-01-26 03:33:00,-4.0,-38.8,29.15,SE,138,0.0,0.0,16,0.00,,,0.00,VWS V13.01,2013-01-26 09:33:00,
2013-01-26 03:38:00,-3.8,-38.7,29.15,SE,138,0.0,0.0,16,0.00,,,0.00,VWS V13.01,2013-01-26 09:38:00,
2013-01-26 03:43:00,-4.4,-39.1,29.12,SE,138,0.0,0.0,16,0.00,,,0.00,VWS V13.01,2013-01-26 09:43:00,
2013-01-26 03:48:00,-4.7,-39.4,29.12,SE,138,0.0,0.0,16,0.00,,,0.00,VWS V13.01,2013-01-26 09:48:00,
2013-01-26 03:53:00,-4.7,-39.4,29.12,SE,138,0.0,0.0,16,0.00,,,0.00,VWS V13.01,2013-01-26 09:53:00,
2013-01-26 03:58:00,-4.5,-39.3,29.12,SE,138,0.0,0.0,16,0.00,,,0.00,VWS V13.01,2013-01-26 09:58:00,
2013-01-26 04:03:00,-5.1,-39.7,29.12,SE,138,0.0,0.0,16,0.00,,,0.00,VWS V13.01,2013-01-26 10:03:00,
2013-01-26 04:08:00,-4.7,-39.4,29.12,SE,138,0.0,0.0,16,0.00,,,0.00,VWS V13.01,2013-01-26 10:08:00,
2013-01-26 04:13:00,-4.5,-39.3,29.12,SE,138,0.0,0.0,16,0.00,,,0.00,VWS V13.01,2013-01-26 10:13:00,
2013-01-26 04:18:00,-4.7,-39.4,29.12,SE,138,0.0,0.0,16,0.00,,,0.00,VWS V13.01,2013-01-26 10:18:00,
2013-01-26 04:23:00,-4.5,-39.3,29.12,SE,138,0.0,0.0,16,0.00,,,0.00,VWS V13.01,2013-01-26 10:23:00,
2013-01-26 04:28:00,-4.4,-39.1,29.12,SE,138,0.0,0.0,16,0.00,,,0.00,VWS V13.01,2013-01-26 10:28:00,
2013-01-26 04:33:00,-4.7,-39.4,29.12,SE,138,0.0,0.0,16,0.00,,,0.00,VWS V13.01,2013-01-26 10:33:00,
2013-01-26 04:38:00,-4.7,-39.4,29.12,SE,138,0.0,0.0,16,0.00,,,0.00,VWS V13.01,2013-01-26 10:38:00,
2013-01-26 04:43:00,-5.1,-39.7,29.12,SE,138,0.0,0.0,16,0.00,,,0.00,VWS V13.01,2013-01-26 10:43:00,
2013-01-26 04:48:00,-5.4,-40.0,29.12,SE,138,0.0,0.0,16,0.00,,,0.00,VWS V13.01,2013-01-26 10:48:00,
2013-01-26 04:53:00,-5.3,-39.9,29.12,SE,138,0.0,0.0,16,0.00,,,0.00,VWS V13.01,2013-01-26 10:53:00,
2013-01-26 04:58:00,-5.1,-39.7,29.12,SE,138,0.0,0.0,16,0.00,,,0.00,VWS V13.01,2013-01-26 10:58:00,
2013-01-26 05:03:00,-4.5,-39.3,29.12,SE,138,0.0,0.0,16,0.00,,,0.00,VWS V13.01,2013-01-26 11:03:00,
2013-01-26 05:08:00,-4.9,-39.6,29.12,SE,138,0.0,0.0,16,0.00,,,0.00,VWS V13.01,2013-01-26 11:08:00,
2013-01-26 05:13:00,-4.7,-39.4,29.12,SE,138,0.0,0.0,16,0.00,,,0.00,VWS V13.01,2013-01-26 11:13:00,
2013-01-26 05:18:00,-4.9,-39.6,29.12,SE,138,0.0,0.0,16,0.00,,,0.00,VWS V13.01,2013-01-26 11:18:00,
2013-01-26 05:23:00,-5.1,-39.7,29.15,SE,138,0.0,0.0,16,0.00,,,0.00,VWS V13.01,2013-01-26 11:23:00,
2013-01-26 05:28:00,-5.3,-39.9,29.15,SE,138,0.0,0.0,16,0.00,,,0.00,VWS V13.01,2013-01-26 11:28:00,
2013-01-26 05:33:00,-5.1,-39.7,29.15,SE,138,0.0,0.0,16,0.00,,,0.00,VWS V13.01,2013-01-26 11:33:00,
2013-01-26 05:38:00,-4.7,-39.4,29.15,SE,138,0.0,0.0,16,0.00,,,0.00,VWS V13.01,2013-01-26 11:38:00,
2013-01-26 05:43:00,-4.5,-39.3,29.15,SE,138,0.0,0.0,16,0.00,,,0.00,VWS V13.01,2013-01-26 11:43:00,
2013-01-26 05:48:00,-4.5,-39.3,29.15,SE,138,0.0,0.0,16,0.00,,,0.00,VWS V13.01,2013-01-26 11:48:00,
2013-01-26 05:53:00,-4.4,-39.1,29.15,SE,138,0.0,0.0,16,0.00,,,0.00,VWS V13.01,2013-01-26 11:53:00,
2013-01-26 05:58:00,-4.4,-39.1,29.15,SE,138,0.0,0.0,16,0.00,,,0.00,VWS V13.01,2013-01-26 11:58:00,
2013-01-26 06:03:00,-4.5,-39.3,29.15,SE,138,0.0,0.0,16,0.00,,,0.00,VWS V13.01,2013-01-26 12:03:00,
2013-01-26 06:08:00,-4.7,-39.4,29.15,SE,138,0.0,0.0,16,0.00,,,0.00,VWS V13.01,2013-01-26 12:08:00,
2013-01-26 06:13:00,-5.1,-39.7,29.15,SE,138,0.0,0.0,16,0.00,,,0.00,VWS V13.01,2013-01-26 12:13:00,
2013-01-26 06:18:00,-4.7,-39.4,29.15,SE,138,0.0,0.0,16,0.00,,,0.00,VWS V13.01,2013-01-26 12:18:00,
2013-01-26 06:23:00,-4.5,-39.3,29.15,SE,138,0.0,0.0,16,0.00,,,0.00,VWS V13.01,2013-01-26 12:23:00,
2013-01-26 06:28:00,-4.5,-39.3,29.15,SE,138,0.0,0.0,16,0.00,,,0.00,VWS V13.01,2013-01-26 12:28:00,
2013-01-26 06:33:00,-4.9,-39.6,29.15,SE,138,0.0,0.0,16,0.00,,,0.00,VWS V13.01,2013-01-26 12:33:00,
2013-01-26 06:38:00,-5.1,-39.7,29.15,SE,138,0.0,0.0,16,0.00,,,0.00,VWS V13.01,2013-01-26 12:38:00,
2013-01-26 06:43:00,-4.7,-39.4,29.15,SE,138,0.0,0.0,16,0.00,,,0.00,VWS V13.01,2013-01-26 12:43:00,
2013-01-26 06:48:00,-4.9,-39.6,29.15,SE,138,0.0,0.0,16,0.00,,,0.00,VWS V13.01,2013-01-26 12:48:00,
2013-01-26 06:53:00,-5.3,-39.9,29.15,SE,138,0.0,0.0,16,0.00,,,0.00,VWS V13.01,2013-01-26 12:53:00,
2013-01-26 06:58:00,-5.1,-39.7,29.15,SE,138,0.0,0.0,16,0.00,,,0.00,VWS V13.01,2013-01-26 12:58:00,
2013-01-26 07:03:00,-4.4,-39.1,29.15,SE,138,0.0,0.0,16,0.00,,,0.00,VWS V13.01,2013-01-26 13:03:00,
2013-01-26 07:08:00,-4.2,-39.0,29.15,SE,138,0.0,0.0,16,0.00,,,0.00,VWS V13.01,2013-01-26 13:08:00,
2013-01-26 07:13:00,-3.6,-38.5,29.15,SE,138,0.0,0.0,16,0.00,,,0.00,VWS V13.01,2013-01-26 13:13:00,
2013-01-26 07:18:00,-3.8,-38.7,29.15,SE,138,0.0,0.0,16,0.00,,,0.00,VWS V13.01,2013-01-26 13:18:00,
2013-01-26 07:23:00,-3.8,-38.7,29.15,SE,138,0.0,0.0,16,0.00,,,0.00,VWS V13.01,2013-01-26 13:23:00,
2013-01-26 07:28:00,-3.8,-38.7,29.15,SE,138,0.0,0.0,16,0.00,,,0.00,VWS V13.01,2013-01-26 13:28:00,
2013-01-26 07:33:00,-3.8,-38.7,29.15,SE,138,0.0,0.0,16,0.00,,,0.00,VWS V13.01,2013-01-26 13:33:00,
2013-01-26 07:38:00,-3.5,-38.4,29.15,SE,138,0.0,0.0,16,0.00,,,0.00,VWS V13.01,2013-01-26 13:38:00,
2013-01-26 07:43:00,-3.3,-38.2,29.15,SE,138,0.0,0.0,16,0.00,,,0.00,VWS V13.01,2013-01-26 13:43:00,
2013-01-26 07:48:00,-3.1,-38.1,29.15,SE,138,0.0,0.0,16,0.00,,,0.00,VWS V13.01,2013-01-26 13:48:00,
2013-01-26 07:53:00,-2.6,-37.6,29.15,SE,142,0.0,0.0,16,0.00,,,0.00,VWS V13.01,2013-01-26 13:53:00,
2013-01-26 07:58:00,-1.5,-36.7,29.15,SSE,154,0.0,0.0,16,0.00,,,0.00,VWS V13.01,2013-01-26 13:58:00,
2013-01-26 08:03:00,-1.1,-36.4,29.15,SSE,158,0.0,0.0,16,0.00,,,0.00,VWS V13.01,2013-01-26 14:03:00,
2013-01-26 08:08:00,-1.1,-36.4,29.15,SSE,158,0.0,0.0,16,0.00,,,0.00,VWS V13.01,2013-01-26 14:08:00,
2013-01-26 08:13:00,-0.6,-36.0,29.15,SSE,159,0.0,0.0,16,0.00,,,0.00,VWS V13.01,2013-01-26 14:13:00,
2013-01-26 08:18:00,1.2,-34.5,29.15,SSW,198,0.0,0.0,16,0.00,,,0.00,VWS V13.01,2013-01-26 14:18:00,
2013-01-26 08:23:00,3.0,-33.0,29.15,WSW,247,0.0,0.0,16,0.00,,,0.00,VWS V13.01,2013-01-26 14:23:00,
2013-01-26 08:28:00,5.5,-30.9,29.15,West,276,3.6,3.6,16,0.00,,,0.00,VWS V13.01,2013-01-26 14:28:00,
2013-01-26 08:33:00,6.4,-30.2,29.15,West,276,5.8,5.8,16,0.00,,,0.00,VWS V13.01,2013-01-26 14:33:00,
2013-01-26 08:38:00,6.1,-30.5,29.15,West,275,3.1,3.6,16,0.00,,,0.00,VWS V13.01,2013-01-26 14:38:00,
2013-01-26 08:43:00,5.4,-31.1,29.15,West,280,4.0,4.9,16,0.00,,,0.00,VWS V13.01,2013-01-26 14:43:00,
2013-01-26 08:48:00,5.7,-30.8,29.15,WNW,289,4.9,4.9,16,0.00,,,0.00,VWS V13.01,2013-01-26 14:48:00,
2013-01-26 08:53:00,5.9,-30.6,29.15,NW,308,4.9,5.4,16,0.00,,,0.00,VWS V13.01,2013-01-26 14:53:00,
2013-01-26 08:58:00,5.4,-31.1,29.15,WNW,298,4.0,4.9,16,0.00,,,0.00,VWS V13.01,2013-01-26 14:58:00,
2013-01-26 09:03:00,5.4,-31.1,29.15,NW,308,4.0,5.4,16,0.00,,,0.00,VWS V13.01,2013-01-26 15:03:00,
2013-01-26 09:08:00,5.5,-30.9,29.15,NW,316,5.4,6.3,16,0.00,,,0.00,VWS V13.01,2013-01-26 15:08:00,
2013-01-26 09:13:00,5.5,-30.9,29.15,NW,304,5.8,5.8,16,0.00,,,0.00,VWS V13.01,2013-01-26 15:13:00,
2013-01-26 09:18:00,5.9,-30.6,29.15,WNW,289,2.7,4.0,16,0.00,,,0.00,VWS V13.01,2013-01-26 15:18:00,
2013-01-26 09:23:00,9.0,-28.1,29.15,WNW,291,3.6,4.0,16,0.00,,,0.00,VWS V13.01,2013-01-26 15:23:00,
2013-01-26 09:28:00,7.7,-29.1,29.15,NW,318,6.3,6.3,16,0.00,,,0.00,VWS V13.01,2013-01-26 15:28:00,
2013-01-26 09:33:00,8.1,-28.8,29.15,NW,324,8.1,8.1,16,0.00,,,0.00,VWS V13.01,2013-01-26 15:33:00,
2013-01-26 09:38:00,7.9,-29.0,29.15,NW,309,3.6,5.8,16,0.00,,,0.00,VWS V13.01,2013-01-26 15:38:00,
2013-01-26 09:43:00,8.1,-28.8,29.15,NW,316,7.6,7.6,16,0.00,,,0.00,VWS V13.01,2013-01-26 15:43:00,
2013-01-26 09:48:00,8.1,-28.8,29.15,NW,324,4.9,5.4,16,0.00,,,0.00,VWS V13.01,2013-01-26 15:48:00,
2013-01-26 09:53:00,7.9,-29.0,29.15,WNW,293,6.3,8.7,16,0.00,,,0.00,VWS V13.01,2013-01-26 15:53:00,
2013-01-26 09:58:00,7.7,-29.1,29.15,WNW,291,5.4,5.4,16,0.00,,,0.00,VWS V13.01,2013-01-26 15:58:00,
2013-01-26 10:03:00,8.1,-28.8,29.15,WNW,287,6.3,6.3,16,0.00,,,0.00,VWS V13.01,2013-01-26 16:03:00,
2013-01-26 10:08:00,9.1,-27.9,29.15,NW,322,5.4,5.8,16,0.00,,,0.00,VWS V13.01,2013-01-26 16:08:00,
2013-01-26 10:13:00,8.4,-28.5,29.15,WNW,293,6.3,7.6,16,0.00,,,0.00,VWS V13.01,2013-01-26 16:13:00,
2013-01-26 10:18:00,9.0,-28.1,29.15,WNW,292,6.3,6.3,16,0.00,,,0.00,VWS V13.01,2013-01-26 16:18:00,
2013-01-26 10:23:00,8.6,-28.4,29.15,WNW,287,8.3,8.3,16,0.00,,,0.00,VWS V13.01,2013-01-26 16:23:00,
2013-01-26 10:28:00,8.6,-28.4,29.15,West,260,5.8,7.6,16,0.00,,,0.00,VWS V13.01,2013-01-26 16:28:00,
2013-01-26 10:33:00,8.4,-28.5,29.15,West,276,8.1,8.7,16,0.00,,,0.00,VWS V13.01,2013-01-26 16:33:00,
2013-01-26 10:38:00,9.0,-28.1,29.15,West,275,7.6,8.3,16,0.00,,,0.00,VWS V13.01,2013-01-26 16:38:00,
2013-01-26 10:43:00,10.0,-27.2,29.15,WNW,295,6.3,6.3,16,0.00,,,0.00,VWS V13.01,2013-01-26 16:43:00,
2013-01-26 10:48:00,11.8,-25.7,29.15,NW,318,8.3,8.3,16,0.00,,,0.00,VWS V13.01,2013-01-26 16:48:00,
2013-01-26 10:53:00,11.3,-26.1,29.15,NW,318,8.3,8.3,16,0.00,,,0.00,VWS V13.01,2013-01-26 16:53:00,
2013-01-26 10:58:00,11.5,-26.0,29.15,WNW,303,6.3,6.3,16,0.00,,,0.00,VWS V13.01,2013-01-26 16:58:00,
2013-01-26 11:03:00,11.5,-26.0,29.15,NW,308,8.3,8.3,16,0.00,,,0.00,VWS V13.01,2013-01-26 17:03:00,
2013-01-26 11:08:00,11.8,-25.7,29.12,West,277,8.7,8.7,16,0.00,,,0.00,VWS V13.01,2013-01-26 17:08:00,
2013-01-26 11:13:00,11.8,-25.7,29.12,WNW,286,10.5,10.5,16,0.00,,,0.00,VWS V13.01,2013-01-26 17:13:00,
2013-01-26 11:18:00,12.9,-24.8,29.12,West,281,6.3,6.3,16,0.00,,,0.00,VWS V13.01,2013-01-26 17:18:00,
2013-01-26 11:23:00,12.9,-24.8,29.12,West,265,8.1,8.1,16,0.00,,,0.00,VWS V13.01,2013-01-26 17:23:00,
2013-01-26 11:28:00,12.6,-25.1,29.12,WNW,284,6.3,10.1,16,0.00,,,0.00,VWS V13.01,2013-01-26 17:28:00,
2013-01-26 11:33:00,14.4,-23.6,29.12,NW,311,8.7,8.7,16,0.00,,,0.00,VWS V13.01,2013-01-26 17:33:00,
2013-01-26 11:38:00,14.9,-23.2,29.12,WNW,295,6.3,7.6,16,0.00,,,0.00,VWS V13.01,2013-01-26 17:38:00,
2013-01-26 11:43:00,15.1,-23.0,29.12,WNW,287,5.8,8.3,16,0.00,,,0.00,VWS V13.01,2013-01-26 17:43:00,
2013-01-26 11:48:00,15.3,-22.9,29.12,NW,324,9.6,9.6,16,0.00,,,0.00,VWS V13.01,2013-01-26 17:48:00,
2013-01-26 11:53:00,16.7,-21.7,29.12,NW,310,5.8,11.0,16,0.00,,,0.00,VWS V13.01,2013-01-26 17:53:00,
2013-01-26 11:58:00,17.2,-21.2,29.12,WNW,292,10.5,10.5,16,0.00,,,0.00,VWS V13.01,2013-01-26 17:58:00,
2013-01-26 12:03:00,17.8,-22.0,29.12,NW,309,8.7,8.7,15,0.00,,,0.00,VWS V13.01,2013-01-26 18:03:00,
2013-01-26 12:08:00,19.4,-20.7,29.12,NW,326,10.1,10.1,15,0.00,,,0.00,VWS V13.01,2013-01-26 18:08:00,
2013-01-26 12:13:00,20.1,-20.1,29.12,NW,322,11.0,11.0,15,0.00,,,0.00,VWS V13.01,2013-01-26 18:13:00,
2013-01-26 12:18:00,19.6,-20.5,29.12,NW,311,5.4,7.6,15,0.00,,,0.00,VWS V13.01,2013-01-26 18:18:00,
2013-01-26 12:23:00,17.6,-20.9,29.12,WNW,303,5.8,7.6,16,0.00,,,0.00,VWS V13.01,2013-01-26 18:23:00,
2013-01-26 12:28:00,16.5,-21.8,29.12,NW,307,8.7,10.5,16,0.00,,,0.00,VWS V13.01,2013-01-26 18:28:00,
2013-01-26 12:33:00,16.0,-22.3,29.12,West,276,8.1,8.7,16,0.00,,,0.00,VWS V13.01,2013-01-26 18:33:00,
2013-01-26 12:38:00,16.9,-21.5,29.09,WNW,293,8.1,8.1,16,0.00,,,0.00,VWS V13.01,2013-01-26 18:38:00,
2013-01-26 12:43:00,18.1,-21.7,29.09,WNW,290,5.8,8.1,15,0.00,,,0.00,VWS V13.01,2013-01-26 18:43:00,
2013-01-26 12:48:00,16.5,-21.8,29.09,WNW,296,8.3,8.3,16,0.00,,,0.00,VWS V13.01,2013-01-26 18:48:00,
2013-01-26 12:53:00,16.5,-21.8,29.09,WNW,291,8.3,8.3,16,0.00,,,0.00,VWS V13.01,2013-01-26 18:53:00,
2013-01-26 12:58:00,17.2,-21.2,29.09,NW,308,8.1,8.1,16,0.00,,,0.00,VWS V13.01,2013-01-26 18:58:00,
2013-01-26 13:03:00,16.5,-21.8,29.09,NW,316,6.3,8.1,16,0.00,,,0.00,VWS V13.01,2013-01-26 19:03:00,
2013-01-26 13:08:00,17.4,-21.1,29.09,WNW,291,4.0,5.4,16,0.00,,,0.00,VWS V13.01,2013-01-26 19:08:00,
2013-01-26 13:13:00,16.7,-21.7,29.09,WNW,285,5.4,7.6,16,0.00,,,0.00,VWS V13.01,2013-01-26 19:13:00,
2013-01-26 13:18:00,17.2,-21.2,29.09,West,278,5.8,5.8,16,0.00,,,0.00,VWS V13.01,2013-01-26 19:18:00,
2013-01-26 13:23:00,17.2,-21.2,29.06,West,279,5.8,6.3,16,0.00,,,0.00,VWS V13.01,2013-01-26 19:23:00,
2013-01-26 13:28:00,17.1,-21.4,29.06,WNW,291,8.7,8.7,16,0.00,,,0.00,VWS V13.01,2013-01-26 19:28:00,
2013-01-26 13:33:00,17.4,-21.1,29.06,West,274,10.1,10.1,16,0.00,,,0.00,VWS V13.01,2013-01-26 19:33:00,
2013-01-26 13:38:00,17.4,-21.1,29.06,WNW,285,6.3,8.1,16,0.00,,,0.00,VWS V13.01,2013-01-26 19:38:00,
2013-01-26 13:43:00,18.1,-21.7,29.06,West,275,5.4,5.4,15,0.00,,,0.00,VWS V13.01,2013-01-26 19:43:00,
2013-01-26 13:48:00,17.4,-21.1,29.06,NW,307,10.5,10.5,16,0.00,,,0.00,VWS V13.01,2013-01-26 19:48:00,
2013-01-26 13:53:00,17.1,-21.4,29.06,West,277,8.1,8.1,16,0.00,,,0.00,VWS V13.01,2013-01-26 19:53:00,
2013-01-26 13:58:00,18.1,-21.7,29.06,WNW,292,5.8,8.1,15,0.00,,,0.00,VWS V13.01,2013-01-26 19:58:00,
2013-01-26 14:03:00,19.8,-20.4,29.06,WSW,240,5.4,5.4,15,0.00,,,0.00,VWS V13.01,2013-01-26 20:03:00,
2013-01-26 14:08:00,18.7,-21.3,29.06,WNW,289,6.3,6.3,15,0.00,,,0.00,VWS V13.01,2013-01-26 20:08:00,
2013-01-26 14:13:00,19.4,-20.7,29.06,WSW,247,5.4,5.8,15,0.00,,,0.00,VWS V13.01,2013-01-26 20:13:00,
2013-01-26 14:18:00,18.3,-21.6,29.06,WNW,291,3.6,6.3,15,0.00,,,0.00,VWS V13.01,2013-01-26 20:18:00,
2013-01-26 14:23:00,18.5,-21.4,29.06,WSW,238,4.0,4.9,15,0.00,,,0.00,VWS V13.01,2013-01-26 20:23:00,
2013-01-26 14:28:00,18.7,-21.3,29.03,WNW,286,5.8,7.6,15,0.00,,,0.00,VWS V13.01,2013-01-26 20:28:00,
2013-01-26 14:33:00,19.4,-20.7,29.03,NW,310,6.3,6.3,15,0.00,,,0.00,VWS V13.01,2013-01-26 20:33:00,
2013-01-26 14:38:00,19.4,-20.7,29.03,West,278,6.3,8.1,15,0.00,,,0.00,VWS V13.01,2013-01-26 20:38:00,
2013-01-26 14:43:00,19.6,-20.5,29.03,West,276,8.1,8.1,15,0.00,,,0.00,VWS V13.01,2013-01-26 20:43:00,
2013-01-26 14:48:00,19.8,-18.0,29.03,West,264,8.1,8.1,17,0.00,,,0.00,VWS V13.01,2013-01-26 20:48:00,
2013-01-26 14:53:00,19.6,-20.5,29.03,West,271,8.3,10.1,15,0.00,,,0.00,VWS V13.01,2013-01-26 20:53:00,
2013-01-26 14:58:00,20.1,-20.1,29.03,West,272,7.2,8.3,15,0.00,,,0.00,VWS V13.01,2013-01-26 20:58:00,
2013-01-26 15:03:00,20.3,-20.0,29.03,WSW,238,4.0,5.8,15,0.00,,,0.00,VWS V13.01,2013-01-26 21:03:00,
2013-01-26 15:08:00,20.3,-17.5,29.03,West,276,8.7,8.7,17,0.00,,,0.00,VWS V13.01,2013-01-26 21:08:00,
2013-01-26 15:13:00,20.1,-20.1,29.03,West,281,10.1,10.1,15,0.00,,,0.00,VWS V13.01,2013-01-26 21:13:00,
2013-01-26 15:18:00,20.5,-19.8,29.03,West,275,4.9,6.3,15,0.00,,,0.00,VWS V13.01,2013-01-26 21:18:00,
2013-01-26 15:23:00,20.3,-17.5,29.03,West,277,5.4,8.7,17,0.00,,,0.00,VWS V13.01,2013-01-26 21:23:00,
2013-01-26 15:28:00,20.8,-17.1,29.03,West,267,5.8,5.8,17,0.00,,,0.00,VWS V13.01,2013-01-26 21:28:00,
2013-01-26 15:33:00,20.7,-17.2,29.03,West,276,3.6,7.6,17,0.00,,,0.00,VWS V13.01,2013-01-26 21:33:00,
2013-01-26 15:38:00,20.8,-17.1,29.03,West,278,5.8,5.8,17,0.00,,,0.00,VWS V13.01,2013-01-26 21:38:00,
2013-01-26 15:43:00,20.8,-17.1,29.03,West,278,10.1,10.1,17,0.00,,,0.00,VWS V13.01,2013-01-26 21:43:00,
2013-01-26 15:48:00,21.0,-16.9,29.03,West,261,8.1,8.1,17,0.00,,,0.00,VWS V13.01,2013-01-26 21:48:00,
2013-01-26 15:53:00,21.2,-16.8,29.00,West,266,4.9,6.3,17,0.00,,,0.00,VWS V13.01,2013-01-26 21:53:00,
2013-01-26 15:58:00,21.2,-16.8,29.00,West,260,5.8,5.8,17,0.00,,,0.00,VWS V13.01,2013-01-26 21:58:00,
2013-01-26 16:03:00,21.2,-16.8,29.00,SW,218,8.1,8.1,17,0.00,,,0.00,VWS V13.01,2013-01-26 22:03:00,
2013-01-26 16:08:00,21.4,-16.6,29.00,SW,234,5.4,8.1,17,0.00,,,0.00,VWS V13.01,2013-01-26 22:08:00,
2013-01-26 16:13:00,21.4,-16.6,29.00,West,272,5.4,8.3,17,0.00,,,0.00,VWS V13.01,2013-01-26 22:13:00,
2013-01-26 16:18:00,21.4,-16.6,29.00,West,270,7.6,7.6,17,0.00,,,0.00,VWS V13.01,2013-01-26 22:18:00,
2013-01-26 16:23:00,21.4,-16.6,29.00,West,267,5.4,5.8,17,0.00,,,0.00,VWS V13.01,2013-01-26 22:23:00,
2013-01-26 16:28:00,21.4,-16.6,29.00,West,276,4.9,9.6,17,0.00,,,0.00,VWS V13.01,2013-01-26 22:28:00,
2013-01-26 16:33:00,21.4,-16.6,29.00,WSW,251,8.3,8.3,17,0.00,,,0.00,VWS V13.01,2013-01-26 22:33:00,
2013-01-26 16:38:00,21.6,-16.5,29.00,WNW,293,7.6,8.1,17,0.00,,,0.00,VWS V13.01,2013-01-26 22:38:00,
2013-01-26 16:43:00,21.6,-16.5,29.00,WSW,253,6.7,7.6,17,0.00,,,0.00,VWS V13.01,2013-01-26 22:43:00,
2013-01-26 16:48:00,21.6,-16.5,29.00,WSW,239,5.8,5.8,17,0.00,,,0.00,VWS V13.01,2013-01-26 22:48:00,
2013-01-26 16:53:00,21.7,-16.4,28.97,West,274,8.1,8.3,17,0.00,,,0.00,VWS V13.01,2013-01-26 22:53:00,
2013-01-26 16:58:00,21.6,-16.5,28.97,West,281,5.8,6.3,17,0.00,,,0.00,VWS V13.01,2013-01-26 22:58:00,
2013-01-26 17:03:00,21.7,-16.4,28.97,WNW,299,6.7,6.7,17,0.00,,,0.00,VWS V13.01,2013-01-26 23:03:00,
2013-01-26 17:08:00,21.6,-16.5,28.97,West,279,3.1,3.6,17,0.00,,,0.00,VWS V13.01,2013-01-26 23:08:00,
2013-01-26 17:13:00,21.7,-16.4,28.97,NW,307,5.8,6.3,17,0.00,,,0.00,VWS V13.01,2013-01-26 23:13:00,
2013-01-26 17:18:00,21.9,-16.2,28.97,WNW,286,5.4,5.4,17,0.00,,,0.00,VWS V13.01,2013-01-26 23:18:00,
2013-01-26 17:23:00,21.9,-16.2,28.97,WNW,286,7.6,7.6,17,0.00,,,0.00,VWS V13.01,2013-01-26 23:23:00,
2013-01-26 17:28:00,22.1,-16.0,28.97,West,276,5.8,5.8,17,0.00,,,0.00,VWS V13.01,2013-01-26 23:28:00,
2013-01-26 17:33:00,22.1,-16.0,28.97,WNW,287,5.4,5.4,17,0.00,,,0.00,VWS V13.01,2013-01-26 23:33:00,
2013-01-26 17:38:00,22.3,-15.9,29.00,SW,229,3.6,6.7,17,0.00,,,0.00,VWS V13.01,2013-01-26 23:38:00,
2013-01-26 17:43:00,22.3,-15.9,29.00,SW,232,5.4,7.6,17,0.00,,,0.00,VWS V13.01,2013-01-26 23:43:00,
2013-01-26 17:48:00,22.3,-15.9,29.00,West,275,4.9,4.9,17,0.00,,,0.00,VWS V13.01,2013-01-26 23:48:00,
2013-01-26 17:53:00,22.3,-15.9,29.00,West,273,3.6,4.0,17,0.00,,,0.00,VWS V13.01,2013-01-26 23:53:00,
2013-01-26 17:58:00,22.5,-15.8,29.00,West,275,5.8,7.2,17,0.00,,,0.00,VWS V13.01,2013-01-26 23:58:00,
2013-01-26 18:03:00,22.5,-15.8,29.00,West,261,2.7,3.6,17,0.00,,,0.00,VWS V13.01,2013-01-27 00:03:00,
2013-01-26 18:08:00,22.5,-15.8,29.00,West,275,4.9,4.9,17,0.00,,,0.00,VWS V13.01,2013-01-27 00:08:00,
2013-01-26 18:13:00,22.3,-15.9,29.00,WSW,257,0.0,3.6,17,0.00,,,0.00,VWS V13.01,2013-01-27 00:13:00,
2013-01-26 18:18:00,22.5,-15.8,29.00,WSW,257,5.4,5.4,17,0.00,,,0.00,VWS V13.01,2013-01-27 00:18:00,
2013-01-26 18:23:00,22.5,-15.8,29.00,WSW,239,0.0,4.9,17,0.00,,,0.00,VWS V13.01,2013-01-27 00:23:00,
2013-01-26 18:28:00,22.5,-15.8,29.00,West,271,5.4,5.4,17,0.00,,,0.00,VWS V13.01,2013-01-27 00:28:00,
2013-01-26 18:33:00,22.5,-15.8,29.00,SW,236,4.0,5.4,17,0.00,,,0.00,VWS V13.01,2013-01-27 00:33:00,
2013-01-26 18:38:00,22.5,-15.8,29.00,WSW,243,3.6,5.8,17,0.00,,,0.00,VWS V13.01,2013-01-27 00:38:00,
2013-01-26 18:43:00,22.5,-15.8,28.97,West,279,4.9,5.8,17,0.00,,,0.00,VWS V13.01,2013-01-27 00:43:00,
2013-01-26 18:48:00,22.5,-15.8,28.97,West,275,7.6,7.6,17,0.00,,,0.00,VWS V13.01,2013-01-27 00:48:00,
2013-01-26 18:53:00,22.3,-15.9,28.97,West,261,3.1,3.1,17,0.00,,,0.00,VWS V13.01,2013-01-27 00:53:00,
2013-01-26 18:58:00,22.5,-15.8,28.97,West,269,5.4,5.4,17,0.00,,,0.00,VWS V13.01,2013-01-27 00:58:00,
2013-01-26 19:03:00,22.5,-15.8,28.97,West,272,4.9,5.4,17,0.00,,,0.00,VWS V13.01,2013-01-27 01:03:00,
2013-01-26 19:08:00,22.5,-15.8,28.97,West,280,6.3,6.7,17,0.00,,,0.00,VWS V13.01,2013-01-27 01:08:00,
2013-01-26 19:13:00,22.5,-15.8,28.97,West,259,3.1,5.8,17,0.00,,,0.00,VWS V13.01,2013-01-27 01:13:00,
2013-01-26 19:18:00,22.3,-15.9,28.97,WSW,239,3.1,3.6,17,0.00,,,0.00,VWS V13.01,2013-01-27 01:18:00,
2013-01-26 19:23:00,22.5,-15.8,28.97,West,277,4.0,5.4,17,0.00,,,0.00,VWS V13.01,2013-01-27 01:23:00,
2013-01-26 19:28:00,22.3,-15.9,28.97,West,279,5.4,5.4,17,0.00,,,0.00,VWS V13.01,2013-01-27 01:28:00,
2013-01-26 19:33:00,22.3,-15.9,28.97,West,276,3.6,4.0,17,0.00,,,0.00,VWS V13.01,2013-01-27 01:33:00,
2013-01-26 19:38:00,22.1,-16.0,29.00,West,280,5.8,5.8,17,0.00,,,0.00,VWS V13.01,2013-01-27 01:38:00,
2013-01-26 19:43:00,22.6,-15.6,29.00,West,279,4.0,6.3,17,0.00,,,0.00,VWS V13.01,2013-01-27 01:43:00,
2013-01-26 19:48:00,22.5,-15.8,29.00,WSW,249,3.1,4.0,17,0.00,,,0.00,VWS V13.01,2013-01-27 01:48:00,
2013-01-26 19:53:00,22.6,-15.6,28.97,WSW,256,6.3,7.6,17,0.00,,,0.00,VWS V13.01,2013-01-27 01:53:00,
2013-01-26 19:58:00,22.3,-15.9,28.97,WSW,249,2.7,3.6,17,0.00,,,0.00,VWS V13.01,2013-01-27 01:58:00,
2013-01-26 20:03:00,22.5,-15.8,28.97,West,274,4.0,6.3,17,0.00,,,0.00,VWS V13.01,2013-01-27 02:03:00,
2013-01-26 20:08:00,22.3,-15.9,28.97,West,281,4.0,5.4,17,0.00,,,0.00,VWS V13.01,2013-01-27 02:08:00,
2013-01-26 20:13:00,22.5,-15.8,28.97,West,275,2.7,6.3,17,0.00,,,0.00,VWS V13.01,2013-01-27 02:13:00,
2013-01-26 20:18:00,22.6,-15.6,28.97,West,276,6.3,7.6,17,0.00,,,0.00,VWS V13.01,2013-01-27 02:18:00,
2013-01-26 20:23:00,22.6,-15.6,28.97,WNW,288,4.0,9.6,17,0.00,,,0.00,VWS V13.01,2013-01-27 02:23:00,
2013-01-26 20:28:00,22.6,-15.6,28.97,WNW,289,5.8,8.3,17,0.00,,,0.00,VWS V13.01,2013-01-27 02:28:00,
2013-01-26 20:33:00,22.6,-15.6,28.97,WNW,295,10.1,10.1,17,0.00,,,0.00,VWS V13.01,2013-01-27 02:33:00,
2013-01-26 20:38:00,22.6,-15.6,28.94,WNW,291,6.7,8.3,17,0.00,,,0.00,VWS V13.01,2013-01-27 02:38:00,
2013-01-26 20:43:00,22.6,-15.6,28.94,WNW,290,5.8,6.3,17,0.00,,,0.00,VWS V13.01,2013-01-27 02:43:00,
2013-01-26 20:48:00,22.6,-15.6,28.94,WNW,294,4.0,4.9,17,0.00,,,0.00,VWS V13.01,2013-01-27 02:48:00,
2013-01-26 20:53:00,22.8,-15.4,28.97,WNW,298,8.1,8.1,17,0.00,,,0.00,VWS V13.01,2013-01-27 02:53:00,
2013-01-26 20:58:00,22.8,-15.4,28.97,WNW,300,5.4,6.3,17,0.00,,,0.00,VWS V13.01,2013-01-27 02:58:00,
2013-01-26 21:03:00,22.8,-15.4,28.97,WNW,301,7.6,8.7,17,0.00,,,0.00,VWS V13.01,2013-01-27 03:03:00,
2013-01-26 21:08:00,22.8,-15.4,28.97,NW,313,8.1,8.3,17,0.00,,,0.00,VWS V13.01,2013-01-27 03:08:00,
2013-01-26 21:13:00,22.8,-15.4,28.97,WNW,300,11.0,11.0,17,0.00,,,0.00,VWS V13.01,2013-01-27 03:13:00,
2013-01-26 21:18:00,22.8,-15.4,28.97,WNW,289,6.7,8.3,17,0.00,,,0.00,VWS V13.01,2013-01-27 03:18:00,
2013-01-26 21:23:00,23.0,-15.3,28.97,WNW,296,10.1,11.0,17,0.00,,,0.00,VWS V13.01,2013-01-27 03:23:00,
2013-01-26 21:28:00,22.8,-15.4,28.97,WNW,297,6.3,6.3,17,0.00,,,0.00,VWS V13.01,2013-01-27 03:28:00,
2013-01-26 21:33:00,22.8,-15.4,28.97,WSW,257,3.1,5.4,17,0.00,,,0.00,VWS V13.01,2013-01-27 03:33:00,
2013-01-26 21:38:00,22.8,-15.4,28.97,WSW,244,2.7,3.6,17,0.00,,,0.00,VWS V13.01,2013-01-27 03:38:00,
2013-01-26 21:43:00,22.6,-15.6,28.97,West,266,7.2,7.2,17,0.00,,,0.00,VWS V13.01,2013-01-27 03:43:00,
2013-01-26 21:48:00,22.6,-15.6,28.97,West,268,6.3,6.3,17,0.00,,,0.00,VWS V13.01,2013-01-27 03:48:00,
2013-01-26 21:53:00,22.8,-15.4,28.94,WNW,285,8.3,8.3,17,0.00,,,0.00,VWS V13.01,2013-01-27 03:53:00,
2013-01-26 21:58:00,22.8,-15.4,28.94,WNW,290,5.8,7.6,17,0.00,,,0.00,VWS V13.01,2013-01-27 03:58:00,
2013-01-26 22:03:00,23.0,-15.3,28.94,West,280,5.8,8.7,17,0.00,,,0.00,VWS V13.01,2013-01-27 04:03:00,
2013-01-26 22:08:00,23.0,-15.3,28.94,West,269,8.7,8.7,17,0.00,,,0.00,VWS V13.01,2013-01-27 04:08:00,
2013-01-26 22:13:00,22.8,-15.4,28.94,WNW,287,6.3,7.2,17,0.00,,,0.00,VWS V13.01,2013-01-27 04:13:00,
2013-01-26 22:18:00,22.8,-15.4,28.94,West,265,5.4,5.4,17,0.00,,,0.00,VWS V13.01,2013-01-27 04:18:00,
2013-01-26 22:23:00,23.2,-15.2,28.94,West,281,8.3,8.3,17,0.00,,,0.00,VWS V13.01,2013-01-27 04:23:00,
2013-01-26 22:28:00,23.0,-15.3,28.94,West,279,4.9,6.3,17,0.00,,,0.00,VWS V13.01,2013-01-27 04:28:00,
2013-01-26 22:33:00,23.0,-15.3,28.94,WNW,289,6.3,6.3,17,0.00,,,0.00,VWS V13.01,2013-01-27 04:33:00,
2013-01-26 22:38:00,22.8,-15.4,28.94,West,268,6.3,6.3,17,0.00,,,0.00,VWS V13.01,2013-01-27 04:38:00,
2013-01-26 22:43:00,22.8,-15.4,28.94,West,274,4.9,7.6,17,0.00,,,0.00,VWS V13.01,2013-01-27 04:43:00,
2013-01-26 22:48:00,22.8,-15.4,28.94,WNW,286,6.3,8.1,17,0.00,,,0.00,VWS V13.01,2013-01-27 04:48:00,
2013-01-26 22:53:00,23.0,-15.3,28.94,WNW,303,7.6,8.1,17,0.00,,,0.00,VWS V13.01,2013-01-27 04:53:00,
2013-01-26 22:58:00,22.8,-15.4,28.94,West,275,5.4,6.7,17,0.00,,,0.00,VWS V13.01,2013-01-27 04:58:00,
2013-01-26 23:00:00,22.8,-15.4,28.94,WNW,285,5.8,5.8,17,0.00,,,0.00,VWS V13.01,2013-01-27 05:00:00,
2013-01-26 23:01:00,22.8,-15.4,28.94,WNW,293,5.8,5.8,17,0.00,,,0.00,VWS V13.01,2013-01-27 05:01:00,
2013-01-26 23:03:00,23.2,-15.2,28.94,WSW,254,5.4,10.1,17,0.00,,,0.00,VWS V13.01,2013-01-27 05:03:00,
2013-01-26 23:08:00,22.8,-15.4,28.94,West,279,7.6,7.6,17,0.00,,,0.00,VWS V13.01,2013-01-27 05:08:00,
2013-01-26 23:13:00,23.0,-15.3,28.94,WNW,286,7.6,8.1,17,0.00,,,0.00,VWS V13.01,2013-01-27 05:13:00,
2013-01-26 23:18:00,22.8,-15.4,28.94,WNW,285,5.8,10.1,17,0.00,,,0.00,VWS V13.01,2013-01-27 05:18:00,
2013-01-26 23:23:00,22.6,-15.6,28.94,WNW,290,8.7,9.2,17,0.00,,,0.00,VWS V13.01,2013-01-27 05:23:00,
2013-01-26 23:28:00,22.6,-15.6,28.94,West,272,5.8,8.1,17,0.00,,,0.00,VWS V13.01,2013-01-27 05:28:00,
2013-01-26 23:33:00,22.6,-15.6,28.94,WNW,294,7.2,8.1,17,0.00,,,0.00,VWS V13.01,2013-01-27 05:33:00,
2013-01-26 23:38:00,22.6,-15.6,28.94,West,264,6.3,6.3,17,0.00,,,0.00,VWS V13.01,2013-01-27 05:38:00,
2013-01-26 23:43:00,22.3,-15.9,28.94,West,264,6.3,6.3,17,0.00,,,0.00,VWS V13.01,2013-01-27 05:43:00,
2013-01-26 23:48:00,22.5,-15.8,28.94,WNW,291,6.3,6.3,17,0.00,,,0.00,VWS V13.01,2013-01-27 05:48:00,
2013-01-26 23:53:00,22.3,-15.9,28.94,WNW,291,4.0,5.4,17,0.00,,,0.00,VWS V13.01,2013-01-27 05:53:00,
2013-01-26 23:58:00,22.3,-15.9,28.94,West,263,3.1,4.0,17,0.00,,,0.00,VWS V13.01,2013-01-27 05:58:00,